Погода в Якунине

Россия / Курская область     51°41′33″N   36°23′32″E
темп.,
°C
ветер,
м/с
пор.,
м/с
влажн.,
%
обл.,
%
осадки,
мм/ч
давл.,
гПа
погр.,
м
7 марта, вс
вс700:00−11з34916 0.0 102149
03:00−11зюз46953 0.0 1020101
06:00−11юз499589 0.0 1018201
09:00−7юз8168179 0.0 1016584
12:00−3юз101778100 0.0 10121034
15:00−2зюз111887100 0.0 10081256
18:00−1зюз101890100 0.3 10051134
21:00−1зюз101893100 0.7 10051121
8 марта, пн
пн800:00−2зсз4996100 1.8 1005590
03:00−4зюз4785100 2.3 1005140
06:00−4зюз4992100 0.1 1004272
09:00−3з51094100 0.4 1005657
12:00−2з71083100 0.3 10061163
15:00−3з698099 0.5 10071153
18:00−5з488897 0.1 1008235
21:00−6з4109598 0.3 1010314
9 марта, вт
вт900:00−10сз349274 0.1 101180
03:00−11сз349667 0.2 101391
06:00−12сз349695 0.1 101489
09:00−11зсз359594 0.1 1016197
12:00−8сз469099 0.1 1017589
15:00−7сз5686100 0.1 1019808
18:00−10сз3591100 0.1 1019108
21:00−14сз239262 0.1 102224
10 марта, ср
ср1000:00−15ссз239516 0.0 102320
03:00−16ссз22958 0.0 102420
06:00−17ссз22960 0.0 102520
09:00−15с11940 0.0 102658
12:00−11с118768 0.0 1026246
15:00−9вюв108284 0.0 1026385
18:00−11юв2290100 0.0 102621
21:00−13юв229099 0.0 102721
11 марта, чт
чт1100:00−14вюв239086 0.0 102821
03:00−15юв238983 0.0 102821
06:00−15ююв338985 0.0 102835
09:00−12ююв368976 0.0 1029167
12:00−6ю478324 0.0 1028463
15:00−4ю477742 0.0 1027846
18:00−7ююв348118 0.0 102656
21:00−8ююв511759 0.0 1025164